Location: Harmony
(28.2000°N, 81.1500°W)
Time: 15:50:17
(UTC-05:00)

MTI - Pass Details

Date: 18 December 2017
Orbit: 414 x 423 km, 97.6° (Epoch: 18 January)

Event Time Altitude Azimuth Distance (km) Brightness Sun altitude
Exits shadow 18:11:24 -1° 13° (NNE) 2,452 7.3 -8.7°
Rises 18:11:33 0° 13° (NNE) 2,385 7.2 -8.8°
Reaches altitude 10° 18:13:34 10° 16° (NNE) 1,516 6.2 -9.2°
Maximum altitude 18:16:48 73° 101° (E) 446 3.7 -9.8°
Drops below altitude 10° 18:20:01 10° 187° (S) 1,504 6.9 -10.5°
Sets 18:22:00 0° 189° (S) 2,364 8.0 -10.9°
